Regional Weather Roundup
Issued by NWS

Home | Current Version | Previous Version | Text Only | Print | Product List | Glossary On
Versions: 1 2 3 4 5 6 7 8 9 10 11 12 13 14 15 16 17 18 19 20 21 22 23 24 25 26 27
000
ASUS45 KBOU 290007
RWRCO

WEATHER ROUNDUP FOR COLORADO
NATIONAL WEATHER SERVICE DENVER/BOULDER CO
600 PM MDT TUE MAR 28 2017

NOTE: "FAIR" INDICATES FEW OR NO CLOUDS BELOW 12000 FEET WITH NO
SIGNIFICANT WEATHER AND/OR OBSTRUCTIONS TO VISIBILITY.

COZ001>005-013-030-031-290100-
...NORTHWEST COLORADO...

CITY           SKY/WX    TMP DP  RH WIND       PRES   REMARKS
CRAIG          CLOUDY    44  33  65 N17G26    29.98R
HAYDEN         PTSUNNY   45  30  57 NW13      29.96R
MEEKER         LGT RAIN  42  38  85 VRB3      29.99R
MOUNT WERNER   NOT AVBL
STEAMBOAT SPGS CLOUDY    38  36  91 E6        29.96R
WALDEN         NOT AVBL
$$

COZ006>008-011-290100-
...WEST CENTRAL VALLEYS...

CITY           SKY/WX    TMP DP  RH WIND       PRES   REMARKS
GRAND JUNCTION CLOUDY    51  38  60 N10       29.93R
MONTROSE       CLOUDY    49  38  65 NW23G33   29.91R
EAGLE          CLOUDY    43  37  81 NE7       29.94R
RIFLE          CLOUDY    48  36  63 NW17      29.92R
DELTA          FAIR      53  37  55 W20G31    29.86R
NUCLA          CLOUDY    50  36  57 NW18G24   29.94R
$$

COZ017>023-064>068-290100-
...SOUTHWEST COLORADO...

CITY           SKY/WX    TMP DP  RH WIND       PRES   REMARKS
DURANGO        CLOUDY    41  34  76 SE9       29.81R
CORTEZ         CLOUDY    47  37  68 N12G26    29.86R
PAGOSA SPRINGS CLOUDY    40  37  89 SW3       29.82R THUNDER
TELLURIDE      LGT SNOW  34  31  88 W6G20     29.93R WCI  29
WOLF CREEK PAS TSTM      25  23  93 NW8G18    29.94R WCI  16
$$

COZ009-010-012-014-032>034-037-058>063-290100-
...CENTRAL COLORADO...

CITY           SKY/WX    TMP DP  RH WIND       PRES   REMARKS
ASPEN          LGT RAIN  38  34  85 NW10      29.90R FOG
BUENA VISTA    DRIZZLE   38  34  82 N6        29.90R
COPPER MTN     CLOUDY    28  23  80 CALM      29.98R
BERTHOUD PASS  HVY SNOW  21  10  63 NE9       30.00S VSB<1/4 WCI  11
COTTONWOOD PAS SNOW      34  32  93 CALM      29.93R VSB<1/4
GUNNISON       LGT RAIN  40  33  76 VRB5G17   29.87R
KREMMLING      CLOUDY    43  36  75 N7        29.96R
LEADVILLE      SNOW      30  28  92 N6        29.91R VSB 1/2 WCI  24
MONARCH PASS   SNOW      27  27 100 NE22      30.02R VSB<1/4 WCI  12
SALIDA         CLOUDY    40  36  86 SE8G17    29.95R
SUNLIGHT       FOG      N/A N/A N/A MISG      30.02R VSB 1/4
WILKERSON PASS FOG       27  25  93 NE13G21   29.97R VSB 1/2 WCI  16
$$

COZ069>075-290100-
...SAN LUIS VALLEY/SANGRE DE CRISTO MOUNTAINS...

CITY           SKY/WX    TMP DP  RH WIND       PRES   REMARKS
ALAMOSA        CLOUDY    42  31  64 SE17G25   29.80R
LA VETA PASS   NOT AVBL
SAGUACHE       CLOUDY    43  32  65 NW9G22    29.83R
$$

COZ035-036-038>040-290100-
...NORTHERN COLORADO FRONT RANGE...

CITY           SKY/WX    TMP DP  RH WIND       PRES   REMARKS
DENVER INTL AP LGT RAIN  43  42  97 N17       29.89R VSB 1/4
DMNS CITY PARK   N/A     42  40  91 N6G23     29.92R
AURORA         LGT RAIN  41  41 100 N16       29.91R FOG
FRONT RANGE AP RAIN      45  45 100 N13       29.90R
ERIE MUNI ARPT LGT RAIN  43  39  88 N21G28    29.93R
BOULDER MUN AP LGT RAIN  43  41  93 N8        29.94R
CENTENNIAL     CLOUDY    40  38  93 NW13      29.91R FOG
BROOMFIELD     DRIZZLE   41  39  93 NW16G22   29.93R
FORT COLLINS   RAIN      42  39  89 N18G25    29.96R
LONGMONT       DRIZZLE   46  40  79 N22       29.96R
$$

COZ041-046-047-076>085-087-088-290100-
...PIKES PEAK/PALMER DIVIDE AND SOUTHERN FOOTHILLS...

CITY           SKY/WX    TMP DP  RH WIND       PRES   REMARKS
COLO. SPRINGS  CLOUDY    45  35  68 N17       29.89R
A. F. ACADEMY  CLOUDY    41  36  81 N20G26    29.89R
SCHRIEVER AFB  RAIN      39  37  93 NE8       29.91R
ELLICOTT       MIX PCPN N/A N/A N/A NE9       29.88R
FALCON         CLOUDY    40  36  84 N15G23    29.90R
FORT CARSON    LGT RAIN  41  39  93 NE8       29.88R
LIMON          CLOUDY    41  40  96 SE14      29.89R
MONUMENT HILL  RAIN      36  36 100 N16       29.93R
TRINIDAD       HVY RAIN  45  43  93 N6        29.81R FOG
$$

COZ042>045-048>051-090-091-290100-
...NORTHEAST COLORADO...

CITY           SKY/WX    TMP DP  RH WIND       PRES   REMARKS
GREELEY ARPT   LGT RAIN  45  43  93 NE12      29.93R
AKRON          LGT RAIN  42  40  92 SE20G26   29.91R FOG
BURLINGTON     CLOUDY    42  40  92 E18G25    29.90F
WRAY           NOT AVBL
STERLING       CLOUDY    43  43 100 E10G18    29.93R
HOLYOKE        CLOUDY    43  41  93 SE14      29.98R
FORT MORGAN    DRIZZLE   44  43  95 E15G22    29.91R
$$

COZ086-089-092>099-290100-
...SOUTHEAST COLORADO...

CITY           SKY/WX    TMP DP  RH WIND       PRES   REMARKS
PUEBLO         LGT RAIN  47  43  86 E17       29.85R
LA JUNTA       LGT RAIN  45  42  89 E20       29.85R FOG
LAMAR          LGT RAIN  44  42  93 E16       29.85R FOG
SPRINGFIELD      N/A     41  41 100 E16       29.84R
$$




USA.gov is the U.S. government's official web portal to all federal, state and local government web resources and services.